Flag for Switzerland Weather past 2 weeks in Altdorf, Uri, Switzerland

Now
39 °F

Rain. Overcast.


Feels Like: 35 °F
Forecast: 32 / 52 °F
Wind: 6 mph from North

Location: Altdorf


UV Index: 0 (Low)

Visibility: 6 mi


Pressure: 29.98 "Hg

Humidity: 86%

Dew point: 35 °F

Location of AltdorfLocation

Historic Weather in Altdorf

°F

Altdorf temperature yesterday

Maximum temperature yesterday: 59 °F (at 5:00 PM)
Minimum temperature yesterday: 31 °F (at 7:00 AM)
Average temperature yesterday: 45 °F

Past Weeks' High & Low Weather Summary

 TemperatureHumidityPressure
High67 °F (Apr 11, 5:00 PM)96% (Apr 6, 7:00 AM)30.34 "Hg (Apr 6, 7:00 AM)
Low31 °F (Apr 17, 7:00 AM)25% (Apr 4, 1:00 AM)29.63 "Hg (Apr 4, 6:00 AM)
Average52 °F66%30.07 "Hg
* Reported Apr 3 8:00 PM — Apr 18 8:00 PM, Altdorf, Weather by CustomWeather, © 2014

Note: Actual official high and low records may vary slightly from our data, if they occured in-between our weather recording intervals... More about our weather records

Advertising

Historic Weather Conditions — Data for Previous 24 hours

 ConditionsComfort  
Time TempWeatherWind HumidityBarometerVisibility
8:00 PM
Apr 18
39 °FRain. Overcast.6 mph86%29.98 "Hg6 mi
7:00 PM40 °FChilly.15 mph86%29.95 "HgN/A
6:00 PM46 °FCool.14 mph83%29.84 "HgN/A
5:00 PM49 °FCool.2 mph75%29.84 "HgN/A
4:00 PM49 °FCool.2 mph70%29.86 "HgN/A
3:00 PM50 °FCool.6 mph63%29.87 "HgN/A
2:00 PM51 °FOvercast.14 mph62%29.85 "Hg10 mi
1:00 PM53 °FCool.15 mph52%29.86 "HgN/A
12:00 PM54 °FCool.18 mph46%29.85 "HgN/A
11:00 AM52 °FOvercast.2 mph55%29.88 "Hg15 mi
10:00 AM51 °FCool.3 mph58%29.89 "HgN/A
9:00 AM46 °FCool.2 mph60%29.93 "HgN/A
8:00 AM41 °FOvercast.2 mph77%29.96 "Hg12 mi
7:00 AM37 °FChilly.1 mph80%29.98 "HgN/A
6:00 AM38 °FChilly.2 mph77%29.98 "HgN/A
5:00 AM37 °FPassing clouds.1 mph79%30.00 "Hg11 mi
4:00 AM37 °FChilly.2 mph79%30.01 "HgN/A
3:00 AM38 °FChilly.2 mph78%30.02 "HgN/A
2:00 AM43 °FClear.2 mph67%30.02 "Hg11 mi
Weather by CustomWeather, © 2014

See weather overview